SL-16 DEB, 43354

Orbit data source: Space-Track

SL-16 DEB, 43354 is space debris in LEO originally from a launch on Wed, 04 Sep 1996 UTC launched from the Tyuratam Missile And Space Complex (TTMTR). Debris objects in space refer to the collection of defunct objects orbiting the Earth. Examples of debris include non-operational satellites, rocket bodies, and fragments generated from explosions, collisions, or faulty payload assembly.

Loading next visibility...
Identifier
43354, 1996-051P
Orbit
LEO
Country
Flag of CISCIS
Related business
Manufacturer
Unknown
Mission
Spacecraft
Bus & Motor
Unknown
Mass
Unknown
Launch date (UTC)
1996-09-04 (29 years ago)
Launch vehicle
Unknown
Launch site
Tyuratam Missile And Space Complex (TTMTR)
Object type
Payload
Rocket body
Debris
Shape & HBR
Unknown shape, 0.1 m
Radar Cross Section
Small (<0.1 m²)

Expand to show TLE details & history
Last TLE update: 4 days ago

TLE from 4 days ago
0 SL-16 DEB
1 43354U 96051P   25305.72290241  .00000624  00000-0  33810-3 0  9992
2 43354  71.1911  61.4025 0090859  92.0409 269.1122 14.14056512616256
Epoch: 2025-11-01T17:20Z
TLE epoch observation values (Epoch: 2025-11-01T17:20:58.768Z)
Latitude
-0.00005°
Longitude
119.90872°
Altitude
849.549 km
Speed
7.427 km/s
True Right ascension
04h 05m 36s
True Declination
0° 00' 00"
Sunlit
Object was in full shadow at epoch
Visualization orbit readout
Latitude
Unknown
Longitude
Unknown
Altitude
Unknown
Speed
Unknown
Apparent Right ascension
Unknown
Apparent Declination
Unknown
Sunlit
N/A
Visualization observer readout
Local Sidereal Time
15:07:36
Azimuth
Unknown
Elevation
Unknown
Doppler factor
Unknown
Orbital elements
Apogee altitude
909.045 km
Perigee altitude
777.816 km
Semi-major axis
7,221.567 km
Eccentricity
0.00909
Inclination
71.1911°
RAAN
61.4025°
Arg. of periapsis
92.0409°
True anomaly
268.0714°
Mean anomaly
269.1122°
Eccentric anomaly
268.59177°
Mean motion
3.53668 °/min
Orbital period
101.79 mins
BSTAR
0.0003381
Loading maneuver chart data...
Computing Atmospheric mass density...
Loading historical data...
Loading historical data...
Loading historical data...
Loading historical data...
Loading historical data...
Loading historical data...
Loading historical data...

Documentation

Showing up to 5 results
|